Starlink 3955

operational
NORAD ID: 52561 Int'l Des: 2022-051 Owner: SPXS Country: US Constellation: starlink
LEOCIRCULAR

About Starlink 3955

Description loading...

Live Position

Loading 3D Globe...

Upcoming Passes

Altitude History

Altitude vs Time

uPlot chart will show altitude changes over time

Two-Line Element Set

1 52561U 22051AE 26062.47017992 .00000951 00000-0 77822-4 0 9999
2 52561 53.2173 162.0449 0001169 85.0969 275.0156 15.08841251210433
Epoch: Mar 3, 2026 • Age: 31 hours

Current Status

Altitude 539.7 km
Velocity 7.59 km/s
Sub-Earth Point 10.37°N, 61.98°E
Launch Date May 13, 2022
Age 3.8 years
Type internet

Technical Details

Classification Payload
Mass 297.00 kg
Dry Mass 275.00 kg
Total Mass 297.00 kg
Length 0.20 m
Diameter 2.80 m
Span 9.00 m
Shape Box + pan
Manufacturer SPXS
Bus Type Starlink
Phase Status In Orbit
Owner/State SPXS/US

Large Constellations

Loading constellations...